Theta_e
298 298 297 297 297 297 296 295 295 295 295 295 295 295 294 294 294 295 295 296 296 296 295 296 295 295 295 296 296 295 295 295 295 295 295 295 295 295 295 295 295 295 295 294 294 294 294 293 293 293 293 293 293 293 293 293 293 294 294 294 294 295 295 295 296 296 296 296 296 296 297 297 296 296 296 297 297 297 297 297 297 297 297 297 298 298
298 297 296 296 296 296 296 295 295 295 295 295 294 294 294 294 294 294 295 295 295 295 295 295 295 295 295 295 295 295 294 294 294 294 294 295 295 295 295 295 294 294 294 294 294 293 293 293 293 293 293 293 293 293 293 293 293 293 293 293 293 294 294 294 294 295 295 295 295 296 296 296 296 296 296 296 296 296 296 296 296 297 297 297 297 297
297 297 296 296 296 296 295 295 294 295 294 294 294 294 294 294 294 294 295 295 295 295 295 295 295 295 294 294 294 294 293 293 293 293 294 294 294 294 294 294 294 294 294 293 293 293 293 292 292 292 292 292 292 292 292 292 292 292 292 292 292 292 293 293 293 294 294 294 294 295 295 295 295 295 295 295 295 296 296 296 296 296 296 296 296 297
296 296 296 295 295 295 294 294 294 294 294 294 294 294 293 293 294 294 295 295 295 295 295 294 294 294 294 294 293 293 292 292 292 292 292 293 293 293 293 293 293 293 293 293 292 292 292 292 292 292 292 291 291 291 291 291 291 291 291 291 291 291 292 292 292 293 293 293 293 294 294 294 294 294 295 295 295 295 295 295 295 295 295 295 296 296
296 296 295 294 294 294 294 293 293 293 293 293 293 293 293 293 293 293 294 294 294 294 294 294 293 293 293 293 292 291 291 291 291 291 291 291 292 292 292 292 292 292 292 292 292 292 292 291 291 291 291 291 291 291 291 290 290 290 290 290 290 290 291 291 291 291 292 292 292 293 293 293 294 294 294 294 294 294 294 295 295 295 295 295 295 295
296 295 295 294 293 293 294 294 293 293 293 293 293 293 293 293 293 293 293 293 293 293 293 293 293 293 293 292 291 290 290 290 290 290 289 290 290 291 291 291 292 292 291 291 291 291 291 291 291 291 291 290 290 290 290 290 290 290 289 289 289 289 289 289 289 289 290 291 291 292 292 293 293 293 293 293 293 294 294 294 294 294 294 294 294 294
295 295 295 294 293 293 294 294 293 293 293 293 294 293 293 293 293 293 293 293 292 292 292 292 292 292 291 290 290 289 289 290 290 290 289 289 289 289 289 290 290 290 290 290 290 290 290 290 290 290 290 290 290 289 289 289 289 289 288 288 288 287 287 287 287 287 288 289 289 290 291 291 292 292 292 292 292 293 293 293 293 294 294 294 294 294
295 295 294 294 294 293 293 294 293 293 293 293 294 294 294 294 293 293 292 292 292 291 291 291 291 291 290 289 289 289 289 289 289 289 289 289 289 289 289 289 289 289 289 289 289 289 289 289 289 289 289 289 289 288 288 288 288 288 287 287 287 286 286 286 285 285 286 287 288 289 290 290 291 291 291 292 292 292 292 292 293 293 293 293 293 293
295 295 294 294 294 294 294 293 293 293 293 293 293 294 294 294 293 293 292 292 291 291 291 291 290 290 290 289 289 289 289 288 289 289 289 289 289 289 289 288 288 288 288 288 288 288 288 287 287 287 287 288 288 288 288 288 287 287 287 286 286 286 286 285 285 285 285 285 286 287 288 289 290 290 291 291 291 291 292 292 292 292 292 292 292 292
295 295 295 295 294 294 294 293 293 293 293 293 293 293 292 293 293 293 292 292 291 291 290 290 290 290 289 289 289 288 288 288 288 288 288 288 288 288 288 288 288 287 287 287 287 287 287 287 287 287 287 287 288 288 288 287 287 287 286 286 286 285 285 285 285 285 285 285 285 286 287 288 289 290 290 291 291 291 291 291 291 291 292 292 292 292
295 295 295 295 294 294 294 293 293 292 292 292 292 292 291 291 291 291 292 291 290 290 289 289 289 289 289 288 288 288 288 288 287 287 287 287 287 287 287 287 287 287 287 287 286 286 286 287 287 288 288 288 288 288 287 287 287 286 286 285 285 284 284 284 284 284 285 285 285 285 286 287 288 289 289 290 290 291 291 291 291 291 291 291 291 291
295 295 294 294 294 293 293 293 292 291 292 292 292 291 290 290 290 290 290 290 289 289 289 288 288 288 288 288 288 288 288 288 288 287 287 287 287 287 287 287 287 287 287 286 286 286 286 286 287 287 287 287 287 287 287 286 286 285 285 285 285 284 284 284 284 284 284 285 285 285 285 286 287 288 288 289 289 290 290 290 291 291 291 290 291 291
294 294 294 293 293 293 292 292 291 291 291 291 291 290 289 289 289 289 289 289 289 289 289 288 288 288 288 288 288 288 288 288 288 287 287 287 287 287 287 287 287 287 287 286 286 286 286 285 285 286 286 286 286 286 286 286 285 285 285 285 284 284 284 285 285 285 286 286 286 286 287 287 287 288 288 288 288 289 289 289 290 290 290 290 290 290
294 293 293 293 292 292 291 291 291 290 290 290 289 289 289 289 289 288 288 289 289 288 288 288 288 288 288 288 288 288 288 288 287 287 286 286 286 286 286 287 287 287 287 286 286 286 285 285 284 284 285 285 285 285 285 285 285 285 285 284 284 284 285 286 286 287 287 287 287 288 288 288 288 288 288 288 289 289 289 289 289 289 289 289 290 290
293 293 293 292 291 291 291 290 290 290 289 289 288 288 288 288 288 288 288 288 288 288 288 287 287 287 288 288 288 288 288 288 287 287 286 285 285 285 285 285 286 286 286 286 286 285 285 284 284 283 284 284 284 284 284 284 284 284 284 284 284 284 285 286 287 287 287 288 288 288 288 288 288 288 289 289 289 289 289 289 289 289 289 289 289 290
292 292 292 291 291 290 290 290 289 289 289 288 288 288 288 288 288 288 287 287 287 287 287 287 287 287 287 287 287 287 287 287 286 286 286 285 285 284 284 284 285 285 285 286 285 285 284 284 283 283 284 284 284 285 285 285 284 284 284 283 283 284 285 286 286 287 287 287 287 288 288 288 288 288 289 289 289 289 289 289 289 289 289 289 290 290
291 291 291 291 290 289 289 289 289 288 288 288 288 288 288 287 287 287 287 287 286 286 286 286 286 286 287 287 287 287 286 286 286 286 285 285 284 284 284 284 285 285 285 285 285 285 284 284 283 284 284 284 284 285 285 284 284 284 284 284 284 284 285 285 286 286 286 287 287 287 288 288 288 288 288 288 289 289 289 290 290 290 290 290 290 290
290 290 290 290 290 289 289 289 288 288 288 287 287 287 287 287 287 286 286 286 286 286 286 286 286 286 286 286 286 286 286 286 285 285 285 285 284 284 284 284 285 285 285 285 285 284 284 283 284 284 284 284 284 285 285 285 285 285 285 285 285 285 285 285 285 286 286 287 287 287 287 288 288 288 288 288 288 289 289 289 290 290 290 290 290 291
289 290 290 290 289 289 289 288 288 288 288 287 287 287 287 287 287 286 286 286 286 286 286 285 285 285 285 285 286 286 286 285 285 285 285 284 284 284 284 284 284 285 285 285 285 284 284 284 284 284 284 284 285 285 285 285 285 285 285 286 285 285 286 285 285 285 286 286 287 287 287 288 288 288 288 288 288 288 289 289 289 290 290 290 291 291
289 289 289 289 289 288 288 288 288 287 287 287 287 287 287 287 287 286 286 286 286 286 286 285 285 285 285 285 285 285 286 285 285 285 284 284 284 284 284 284 284 284 285 285 284 284 284 284 284 284 284 284 285 285 285 285 286 286 285 285 285 285 285 285 286 286 286 286 286 286 286 287 287 287 287 288 288 288 288 289 289 289 289 290 291 291
288 288 288 288 288 288 288 288 287 287 287 287 287 287 287 286 286 286 286 286 286 286 285 285 285 285 285 285 285 285 285 285 285 284 284 284 284 284 284 284 284 284 285 284 284 284 284 284 284 284 284 284 284 285 285 285 285 285 285 284 284 284 285 285 285 286 286 286 286 286 286 287 287 287 287 288 288 288 288 288 289 289 289 290 290 291
288 288 288 288 288 288 288 288 287 287 287 287 287 286 286 286 286 286 286 285 285 285 285 285 285 285 285 285 285 285 284 284 284 284 284 284 284 284 284 284 284 284 284 284 284 284 284 284 284 284 284 284 284 285 285 285 285 285 284 284 284 284 285 285 286 286 286 287 287 287 287 287 288 288 288 288 288 288 288 288 288 289 289 289 289 290
288 288 288 287 287 287 287 287 287 287 287 287 286 286 286 286 286 285 285 285 285 285 284 285 285 285 285 285 285 285 285 285 285 285 284 284 284 284 284 284 284 284 284 284 284 284 284 284 284 283 283 283 284 284 285 285 285 284 284 283 284 285 285 286 286 286 286 287 287 287 287 288 288 288 288 288 288 288 288 288 288 288 288 289 289 289
287 287 287 287 287 287 287 287 287 287 287 286 286 285 285 285 285 284 284 284 284 284 284 284 285 285 285 285 285 285 285 285 285 285 285 284 284 284 284 283 283 283 283 283 284 284 284 284 283 283 283 283 284 284 285 285 284 284 283 283 284 285 285 285 285 286 286 286 286 287 287 287 287 288 288 288 288 288 288 288 288 288 288 289 289 289
287 287 287 287 287 287 287 287 286 286 286 286 286 285 284 284 284 284 284 284 284 284 284 285 285 285 285 285 285 285 284 285 285 285 285 285 284 284 283 283 283 283 283 283 283 283 283 283 284 284 284 284 284 284 284 284 284 284 284 284 284 284 284 285 285 285 285 285 285 286 286 286 287 287 287 288 288 289 289 289 289 289 289 289 289 289
287 286 286 286 286 286 286 286 286 286 286 286 285 285 284 284 285 285 284 284 284 284 284 284 285 285 285 285 285 284 284 284 285 285 285 284 284 284 283 283 283 283 283 283 283 283 283 284 284 284 284 284 284 284 284 284 284 284 284 284 284 284 284 284 284 284 284 284 284 284 285 285 286 286 287 287 288 288 288 288 289 289 289 289 289 289
286 286 286 286 286 285 285 285 285 285 285 285 285 285 285 285 285 284 284 284 284 284 284 284 284 285 285 285 284 284 284 284 284 284 284 284 284 283 283 283 283 283 283 283 283 283 283 284 284 284 284 284 284 284 284 284 284 284 284 284 284 284 284 284 285 285 285 285 285 284 284 284 285 285 286 286 287 287 288 288 288 288 288 289 289 289
286 285 285 285 285 285 285 285 285 285 285 285 285 285 285 285 285 284 284 284 284 284 284 284 284 284 284 284 284 284 283 283 283 284 284 284 284 283 283 283 283 283 283 283 283 283 283 284 284 285 285 285 284 284 284 284 284 284 284 284 284 284 285 285 285 285 285 285 285 285 284 284 284 284 285 286 286 287 287 288 288 288 288 288 288 288
285 285 285 285 285 285 285 284 284 284 285 285 285 286 286 285 285 284 284 284 284 283 283 283 283 284 284 284 284 283 283 283 283 283 284 284 284 283 283 283 283 283 283 283 283 283 284 284 284 285 285 285 284 284 284 284 284 284 284 284 284 284 284 285 285 285 285 285 285 284 284 284 284 284 285 285 285 286 287 287 287 288 288 288 288 288
285 285 285 285 285 285 285 285 284 284 284 285 285 285 285 285 285 284 284 283 283 283 283 283 283 283 283 283 283 283 283 283 283 283 284 284 284 283 283 283 283 283 283 283 283 283 283 284 285 285 285 284 284 284 284 284 284 284 284 284 284 284 284 284 284 284 284 284 284 284 284 284 284 284 285 285 285 285 286 286 287 287 287 287 287 287
285 285 285 285 285 285 285 285 284 284 284 284 284 284 284 284 284 283 283 283 283 283 282 282 283 283 283 283 282 281 282 283 284 284 284 284 284 283 283 283 283 283 283 282 282 282 281 283 284 284 284 284 284 284 283 283 283 283 283 283 283 283 283 283 283 283 283 283 283 284 284 284 284 285 285 285 285 285 285 286 286 286 287 287 287 287
285 285 285 285 284 284 284 284 284 284 283 283 283 283 283 282 282 282 282 282 282 282 282 282 282 282 282 283 282 281 282 283 283 284 284 284 283 283 283 283 283 283 282 282 282 281 280 282 283 284 284 283 283 283 283 283 283 283 283 283 283 283 283 283 283 283 283 283 283 283 283 283 284 284 284 284 285 285 285 285 286 286 286 286 286 286
285 285 284 284 284 284 283 283 283 283 283 283 283 282 282 282 281 281 281 281 281 281 281 281 282 282 282 282 282 282 282 283 283 283 283 283 283 283 283 283 282 282 282 282 282 282 282 282 283 283 283 283 283 283 283 283 283 283 283 283 283 283 283 283 283 283 283 282 282 282 282 283 283 283 283 284 284 285 285 285 285 286 286 286 286 286
284 283 283 283 282 282 282 282 282 282 282 282 282 282 282 282 281 281 281 281 281 280 280 281 281 281 282 282 282 282 282 282 283 283 283 283 283 283 283 282 282 282 282 282 282 282 282 282 282 282 282 282 282 282 282 283 283 283 283 283 283 283 283 283 283 282 282 282 282 282 282 282 282 282 283 283 283 284 284 285 285 285 286 286 286 286
283 282 282 282 282 281 281 281 282 282 282 282 282 282 282 281 281 281 281 281 281 281 280 280 280 281 281 281 281 282 282 282 283 283 283 283 283 282 282 282 282 282 282 282 282 282 282 282 282 282 282 282 282 282 282 282 283 283 283 283 283 283 283 282 282 282 282 282 282 282 282 282 282 282 283 283 283 283 284 284 285 285 285 285 286 286
282 282 282 282 281 281 281 282 282 282 282 282 282 282 281 281 281 281 281 281 281 281 281 281 280 280 280 281 281 281 282 282 282 282 282 282 282 282 282 282 282 281 281 281 281 282 282 282 282 282 282 281 281 282 282 282 282 282 282 282 283 282 282 282 282 282 282 282 282 282 282 282 282 282 282 283 283 283 284 284 285 285 285 285 285 286
282 282 282 281 281 281 281 281 282 282 282 281 281 281 281 281 281 281 281 281 281 281 281 281 281 280 280 280 281 281 281 282 282 282 282 282 282 281 281 281 281 281 281 281 281 281 281 281 281 281 281 281 281 281 281 282 282 282 282 282 282 282 282 282 282 282 282 282 282 282 282 282 282 282 282 282 283 283 283 283 284 284 284 285 285 285
282 282 282 281 281 281 281 281 281 281 281 281 281 281 281 281 281 281 281 281 281 281 281 281 281 281 280 280 281 281 281 281 282 282 282 282 282 281 281 281 281 281 281 281 281 281 281 281 281 281 281 281 281 281 281 281 281 281 281 281 281 281 281 282 282 282 282 282 282 282 282 282 282 282 282 282 283 283 283 283 283 283 283 283 284 284
282 282 282 281 281 281 281 281 281 281 281 281 281 281 281 281 281 281 281 281 281 281 281 281 281 280 280 280 280 280 280 281 281 281 282 282 281 281 281 281 280 280 280 280 280 280 280 280 280 280 280 280 281 280 280 280 280 280 280 280 280 281 281 281 281 281 281 281 282 282 282 282 282 282 282 283 283 283 283 283 283 283 283 283 283 283
282 282 282 282 282 281 281 281 281 281 281 281 281 281 281 280 280 280 280 280 280 280 280 280 280 280 280 280 280 280 280 280 280 280 280 280 280 280 280 280 280 280 280 279 279 279 279 280 280 280 280 280 280 280 280 280 280 280 280 280 280 281 281 281 281 281 281 281 282 282 282 282 282 282 282 283 283 283 283 283 283 283 283 283 283 283
282 282 282 282 282 281 281 281 281 281 281 281 281 281 280 280 280 280 280 279 279 279 279 280 280 280 280 280 280 280 280 280 279 279 280 280 280 280 280 280 279 279 279 279 279 279 279 279 280 280 280 280 280 280 280 280 280 280 280 280 280 280 280 281 281 281 281 281 282 282 282 282 282 282 282 282 283 283 283 283 283 283 283 283 283 283
282 282 282 282 282 281 281 281 281 281 281 281 280 280 280 279 279 279 279 279 279 279 279 280 280 280 280 280 280 280 280 280 280 280 280 280 280 280 280 280 280 280 279 279 279 279 279 279 279 280 280 280 280 280 280 280 280 280 280 280 280 280 280 281 281 281 281 281 281 281 282 282 282 282 282 282 282 282 282 282 282 283 283 283 283 283
282 282 282 282 282 281 281 281 281 281 281 280 280 279 279 279 279 279 279 279 279 280 280 280 280 280 280 280 280 280 280 280 280 280 280 280 280 280 280 280 280 280 280 279 279 279 279 279 279 279 279 279 279 280 279 280 280 280 280 280 280 280 280 280 281 281 281 281 281 281 281 282 282 282 282 282 282 282 282 282 282 282 283 283 283 283
283 283 282 282 282 281 281 281 281 281 280 280 279 279 279 279 279 279 279 279 280 280 280 280 280 280 280 280 280 280 280 280 280 280 280 280 280 281 281 281 281 280 280 279 279 278 278 279 279 279 279 279 279 280 280 280 280 280 280 280 280 280 280 280 281 281 281 281 281 281 281 282 282 282 282 282 282 282 282 282 282 282 283 283 283 283
282 282 282 282 282 281 281 281 281 281 280 280 279 279 279 279 279 279 279 280 280 280 280 280 280 280 280 280 280 280 280 280 280 280 280 280 281 281 281 281 281 281 280 280 279 279 278 279 279 279 279 279 279 280 280 280 280 280 280 280 280 280 280 280 281 281 281 281 281 281 282 282 282 282 282 282 282 282 282 282 282 282 282 282 282 283
282 282 282 282 282 282 281 281 281 280 280 279 279 279 279 279 279 279 279 280 280 280 280 280 280 280 280 280 279 279 279 279 280 280 280 280 280 280 280 280 281 281 280 280 280 279 279 279 279 279 279 279 279 279 280 280 280 280 280 280 280 280 280 280 281 281 281 281 281 282 282 282 282 282 282 282 282 282 282 282 282 282 282 282 282 282
282 282 282 282 282 282 281 281 281 280 280 279 279 279 279 279 279 279 279 279 280 280 280 280 280 280 280 279 279 279 279 279 279 280 280 280 280 280 280 280 280 280 281 280 280 280 279 279 279 279 279 279 279 279 280 280 280 280 280 280 280 280 280 280 280 281 281 281 281 282 282 282 282 282 282 282 282 282 282 282 282 282 282 282 282 282
282 282 282 282 282 281 281 281 281 280 280 279 279 279 279 279 279 279 279 280 280 280 280 280 280 280 280 279 279 279 279 279 279 279 280 280 281 281 281 281 281 281 281 280 280 280 280 279 279 279 279 279 279 279 280 280 280 280 280 280 280 280 280 280 281 281 281 281 282 282 282 282 282 282 282 282 282 282 282 282 282 282 282 282 282 282
282 282 282 282 282 281 281 281 281 280 280 279 279 279 279 279 279 279 280 280 280 280 280 280 280 280 279 279 279 279 279 279 279 279 280 280 280 281 281 281 281 281 281 280 280 280 280 280 280 280 280 280 280 280 280 280 280 280 280 280 280 280 280 280 281 281 281 282 282 282 282 282 282 282 282 282 282 282 282 282 282 282 282 282 282 282
282 282 282 282 282 282 281 281 281 280 280 279 279 279 279 279 279 279 280 280 280 280 280 280 280 279 279 279 279 279 279 279 279 279 280 280 280 281 281 281 281 281 281 281 281 281 281 280 280 280 280 280 280 280 280 280 280 280 280 280 280 280 280 280 281 281 282 282 282 282 282 282 282 282 282 282 282 282 282 282 282 282 282 282 282 282
282 282 282 282 282 282 281 281 281 280 280 280 279 279 279 279 279 279 279 279 279 280 280 280 279 279 279 279 279 279 279 279 279 279 280 280 280 280 280 280 281 281 281 281 281 281 281 281 280 280 280 280 280 281 281 281 280 280 280 280 280 280 281 281 281 282 282 282 282 282 283 283 283 283 283 283 282 282 282 282 282 282 282 282 282 282
Wind_Speed
3 2 1 1 1 1 1 1 0 1 1 1 2 2 2 3 3 4 4 4 3 1 1 0 2 3 5 5 5 5 4 4 3 3 2 2 2 2 2 2 2 2 2 3 3 3 3 3 3 3 3 3 3 3 3 3 3 3 3 3 4 4 4 4 4 4 4 4 4 4 4 4 5 5 5 5 4 4 4 4 4 4 4 4 4 4
3 2 2 3 3 3 3 3 3 3 3 2 2 2 2 2 2 2 3 4 4 3 3 3 2 2 3 4 4 4 4 3 2 2 1 1 1 1 1 1 1 1 2 2 2 2 2 2 2 2 2 2 2 2 2 2 2 2 2 2 3 3 3 3 4 4 3 4 3 3 3 3 4 4 4 4 3 3 3 3 3 3 3 3 4 4
4 4 4 5 6 5 4 5 5 5 4 4 3 3 4 4 4 4 6 6 6 5 5 4 4 3 3 4 4 5 5 4 3 2 1 1 1 1 1 1 1 1 1 1 1 1 2 2 1 1 1 1 1 1 1 2 2 2 2 2 2 2 2 2 3 3 3 3 3 3 3 3 3 3 3 3 3 3 3 3 3 3 3 3 4 4
6 6 5 5 6 6 5 5 5 4 3 3 3 3 4 3 3 4 6 7 6 6 5 4 3 3 3 3 4 5 5 4 3 3 2 1 1 1 2 2 2 2 2 2 2 1 1 1 1 0 0 1 1 2 2 2 3 3 3 3 3 3 3 3 3 3 3 3 3 3 3 3 3 3 3 3 3 3 3 3 3 3 4 4 4 4
8 6 5 5 6 6 6 5 3 3 3 3 3 3 3 2 2 3 4 5 5 4 4 3 2 1 3 3 3 4 4 4 4 4 4 3 2 1 2 2 2 2 2 2 2 1 1 1 1 1 2 2 3 3 4 4 5 5 5 5 5 5 5 5 5 5 5 5 4 4 4 4 4 4 4 4 4 4 4 4 4 4 4 4 5 5
8 7 6 5 5 5 4 3 4 4 3 3 3 2 2 3 4 5 5 5 5 5 5 4 2 0 2 3 3 4 4 4 4 5 5 4 2 1 1 1 1 1 1 2 2 2 2 3 3 3 4 4 5 5 6 6 7 7 7 8 8 8 7 7 7 7 7 6 6 5 5 5 5 5 5 5 5 5 4 4 5 5 5 5 6 6
8 7 5 5 3 2 2 4 5 5 4 3 2 2 1 1 3 4 5 5 5 4 4 4 2 1 1 3 3 3 3 4 4 4 4 4 3 2 1 0 1 2 2 3 3 4 4 5 5 6 6 6 7 7 7 8 8 9 9 10 10 10 10 10 9 9 8 8 7 7 6 6 6 6 6 6 6 6 6 5 5 6 6 6 6 7
8 6 5 4 2 1 3 4 5 5 5 4 4 4 4 2 2 3 3 3 3 3 4 4 3 2 0 1 2 2 2 2 2 3 3 3 3 3 3 3 3 3 4 4 5 6 6 7 7 8 8 8 8 8 9 9 10 10 11 12 12 13 12 12 11 11 10 9 9 8 8 7 7 7 7 7 7 7 7 7 7 7 7 7 7 7
7 7 5 4 3 3 3 3 4 6 6 5 4 4 4 4 4 4 4 3 3 3 4 4 4 3 2 1 1 2 2 2 2 1 1 2 3 4 5 6 6 6 6 6 7 8 8 9 9 10 10 10 9 10 10 10 11 11 12 13 14 14 14 13 12 12 11 10 10 9 9 8 8 8 8 8 8 8 8 8 8 8 8 8 8 8
7 7 7 5 4 4 4 3 4 5 6 6 4 4 4 5 6 6 6 4 3 2 3 4 4 3 3 3 4 5 5 4 4 3 3 4 5 6 7 8 8 8 8 9 9 9 10 10 10 10 10 10 10 10 10 10 11 12 13 14 14 14 14 13 13 12 12 11 11 11 10 10 9 9 9 9 8 8 8 8 8 8 8 8 8 8
7 7 7 6 5 5 5 4 4 4 5 5 4 4 4 5 5 5 5 5 3 2 2 2 3 4 4 5 6 7 7 6 5 5 5 5 6 7 8 8 9 9 9 9 9 9 9 9 9 9 9 9 9 9 10 11 11 12 13 13 13 13 13 12 12 11 11 11 11 11 10 10 10 10 10 10 9 9 9 9 9 9 9 9 9 8
8 7 7 6 6 5 5 4 4 4 5 4 4 4 3 4 4 4 4 3 3 2 1 2 3 5 6 7 7 8 7 7 6 5 5 5 6 7 7 8 9 9 9 9 9 9 9 9 8 8 8 9 9 9 10 11 12 12 12 13 12 12 11 10 10 9 9 9 9 9 9 9 10 10 10 10 10 10 10 10 10 10 9 9 9 9
7 7 6 6 6 6 5 5 4 4 4 4 4 4 3 2 3 2 2 1 1 1 2 3 4 5 6 7 7 8 7 7 6 5 5 4 4 5 6 7 8 9 10 10 10 11 10 10 9 9 9 9 10 10 10 11 11 11 12 12 12 11 10 9 8 7 7 7 7 7 7 8 8 8 9 9 10 10 10 10 10 10 10 9 9 9
7 7 6 7 7 6 6 5 5 5 5 4 4 4 3 2 1 1 1 0 1 2 3 3 4 5 5 6 7 7 6 6 6 6 6 5 5 5 6 8 9 10 10 11 12 12 11 11 11 11 11 11 11 11 11 12 12 12 12 12 12 10 9 8 7 7 7 6 6 6 7 7 7 7 7 8 9 9 9 10 10 10 10 9 9 9
7 7 7 7 6 6 6 5 5 5 5 4 4 3 3 2 1 1 1 1 1 2 2 3 3 3 4 5 6 5 5 5 6 6 7 7 7 7 7 8 9 10 11 11 12 12 12 11 11 11 11 10 10 11 12 13 13 13 13 13 12 10 8 7 7 7 6 6 6 6 6 6 7 7 7 7 7 8 8 8 9 9 9 9 9 9
7 8 8 7 7 6 6 5 5 5 4 3 3 3 3 2 2 2 2 1 2 2 2 3 3 3 2 3 3 3 4 5 6 7 8 9 9 8 7 7 8 10 11 11 12 12 11 11 10 9 9 9 9 10 11 12 13 13 13 12 10 8 7 7 7 7 7 7 6 6 7 7 7 7 7 7 7 7 7 8 8 8 8 9 9 8
7 6 7 7 8 7 6 5 4 4 4 3 3 3 3 3 3 2 2 2 2 2 2 2 3 3 2 1 2 3 5 6 7 9 10 11 11 9 6 6 8 9 10 11 12 11 11 10 9 8 8 8 8 9 11 12 12 12 11 10 9 8 7 7 7 8 7 7 7 7 7 7 8 8 8 8 8 7 8 8 8 8 8 8 8 8
5 5 5 6 7 7 6 5 4 4 3 3 3 3 3 3 3 2 2 2 2 1 1 2 2 3 3 2 2 3 6 7 8 9 11 12 12 10 6 6 7 9 10 11 11 11 10 9 8 8 8 8 8 9 10 11 11 10 10 9 9 8 8 8 8 8 8 8 8 8 8 8 8 8 8 8 8 8 8 8 8 8 8 8 8 8
5 4 3 4 5 6 6 5 5 4 4 4 4 3 3 2 1 1 1 1 2 2 2 2 3 4 5 5 4 4 6 8 9 10 11 12 13 11 7 5 7 9 10 11 11 10 9 8 8 8 8 8 8 8 9 9 9 10 10 10 10 10 9 9 9 9 9 9 9 9 9 9 9 9 9 9 9 9 9 9 9 8 8 9 9 9
5 4 3 3 4 5 5 5 5 5 5 5 5 4 3 3 2 1 1 1 1 2 3 3 4 5 6 7 7 6 7 9 11 11 10 11 12 11 7 6 6 8 9 10 10 10 8 8 8 8 8 8 8 8 8 9 9 10 10 11 11 11 10 10 9 9 9 9 9 9 10 10 10 10 10 10 10 10 10 10 9 9 9 9 9 9
5 4 3 3 3 4 5 6 6 6 6 6 6 5 4 3 3 2 1 1 1 1 2 3 4 5 6 8 9 10 9 11 12 11 9 10 11 10 7 6 6 8 9 10 10 9 8 8 8 9 9 9 9 8 8 9 9 10 11 12 12 11 9 8 8 8 8 8 8 9 10 10 10 10 10 10 10 11 11 11 10 10 10 10 10 10
5 4 4 4 3 4 5 5 6 6 6 6 6 5 4 4 3 2 2 2 2 3 4 5 6 7 9 11 11 10 9 10 11 10 8 8 9 10 7 6 6 8 9 9 9 9 8 9 9 10 10 9 9 8 8 9 10 11 12 11 10 8 7 6 6 7 7 8 8 9 9 9 10 10 10 10 10 11 11 11 11 11 11 11 11 11
5 5 5 4 4 4 4 5 5 5 6 6 5 5 5 4 4 3 4 4 5 6 7 8 8 9 9 10 10 9 7 7 8 8 7 6 7 9 8 6 7 8 9 9 9 9 10 11 11 11 10 8 7 7 8 9 9 10 11 10 8 6 5 5 5 6 7 7 7 8 8 8 8 9 9 10 10 10 11 11 12 12 12 12 12 12
4 4 5 5 5 5 4 4 5 5 5 5 5 5 5 5 5 5 5 6 6 7 7 8 9 9 9 9 9 9 8 6 7 7 7 6 6 8 9 8 8 9 9 9 10 10 12 13 12 11 8 6 5 6 7 8 9 9 9 8 6 5 5 5 6 6 6 7 7 7 8 8 8 8 8 9 9 10 10 11 11 12 12 12 12 12
4 4 4 5 6 6 5 5 5 5 5 5 4 4 3 3 3 4 5 5 6 6 7 8 10 10 10 10 10 9 8 6 6 7 7 6 6 8 9 9 9 9 9 10 11 12 13 14 12 9 6 4 4 5 7 7 8 9 8 7 6 5 4 5 6 6 7 7 8 8 8 8 9 9 9 9 9 9 10 10 11 11 11 12 12 12
5 5 4 5 5 6 6 6 6 6 6 5 4 4 3 2 3 4 5 5 6 6 8 9 10 10 10 9 9 8 7 6 6 7 7 6 6 7 9 9 8 8 9 10 12 13 14 14 11 7 3 2 3 4 6 7 8 9 9 8 7 6 5 5 6 7 7 8 9 9 9 10 10 10 10 10 9 9 9 10 10 10 11 11 12 12
5 5 5 5 5 5 6 5 5 5 5 5 4 4 3 4 4 5 6 7 6 7 8 9 9 9 9 8 7 7 7 7 7 7 8 7 6 6 8 8 8 9 10 11 13 14 15 13 9 4 1 1 2 4 6 7 9 9 9 9 8 8 7 7 8 8 9 9 10 10 10 10 10 11 11 11 11 10 10 10 10 10 11 11 12 12
4 5 5 5 5 5 5 5 5 5 5 4 4 4 5 6 7 8 9 9 8 8 9 9 9 8 7 7 7 8 9 9 9 8 8 7 6 5 7 8 8 8 10 12 14 15 13 10 6 3 1 0 2 3 6 7 8 9 9 8 8 8 8 8 9 9 10 10 10 11 11 11 10 11 11 11 12 12 11 11 11 11 11 12 12 13
1 2 2 3 3 3 4 4 5 5 5 5 5 6 7 8 9 10 11 11 10 10 10 11 10 9 9 9 10 11 11 11 9 8 8 7 6 6 7 7 7 8 9 11 12 11 9 5 3 2 1 1 3 5 6 8 9 9 9 8 8 8 8 9 9 9 9 10 10 11 11 11 10 10 11 11 12 12 12 12 12 12 12 13 14 14
3 2 2 2 3 3 4 4 5 5 5 6 6 7 8 10 11 12 12 12 12 12 12 12 12 11 10 9 9 9 8 7 7 7 7 6 6 6 7 6 6 8 9 9 7 5 5 3 2 2 0 1 3 5 7 9 9 10 10 10 10 10 10 10 9 9 9 9 10 11 11 11 11 11 11 11 11 12 12 12 13 13 14 14 15 16
2 3 3 3 3 4 5 6 6 7 7 7 8 9 10 11 13 13 13 13 13 13 13 13 13 12 11 8 5 3 4 3 4 5 7 6 5 6 7 6 6 7 8 6 5 4 3 2 1 3 1 3 6 8 9 10 10 10 10 11 11 11 11 11 10 10 10 11 11 11 11 11 11 11 11 11 11 12 12 12 13 13 14 15 16 17
2 3 3 4 5 5 6 7 8 9 9 10 11 11 11 12 12 13 13 13 13 13 14 14 14 13 12 10 7 5 5 5 6 7 7 6 6 7 8 7 6 6 7 6 4 3 2 3 3 4 7 9 10 11 11 11 11 11 10 11 11 11 11 11 12 12 13 13 13 12 11 11 11 11 11 11 11 12 12 12 12 13 14 15 17 18
5 5 6 7 8 8 9 10 10 11 11 12 12 12 12 11 11 11 11 12 12 13 14 14 15 14 14 13 13 12 11 9 9 9 9 7 6 7 7 7 7 7 7 6 6 5 5 6 8 10 12 13 13 12 12 11 10 10 9 10 10 11 11 11 12 13 13 14 14 13 12 11 11 10 10 10 10 11 11 11 12 13 14 15 17 18
6 7 8 9 9 10 10 10 10 10 11 11 11 11 11 11 11 11 11 11 11 12 13 15 15 15 14 13 13 13 12 10 8 8 8 8 7 6 7 7 7 7 6 6 6 7 8 9 10 12 13 13 13 12 12 11 9 8 8 8 9 10 10 11 12 13 13 14 14 14 13 12 10 9 8 8 9 9 9 10 10 11 12 14 15 17
7 8 8 9 9 9 8 8 8 9 9 10 10 11 11 11 11 11 11 11 11 11 12 13 14 15 15 14 13 12 11 9 7 7 7 7 7 7 7 7 7 6 6 6 6 6 7 9 11 12 12 13 13 13 12 9 8 7 7 8 9 10 11 12 13 14 14 14 14 13 12 11 9 8 8 8 8 8 8 9 9 10 11 12 13 15
7 8 8 8 8 8 8 8 8 8 9 9 10 10 10 11 11 12 12 12 11 11 11 11 12 13 14 15 14 14 13 11 9 8 8 8 8 7 6 6 6 6 6 6 7 7 8 10 11 12 12 12 12 12 11 9 8 8 9 10 12 13 14 15 15 15 15 14 13 12 11 10 9 9 9 9 9 9 9 9 9 10 10 11 12 13
7 8 8 8 8 8 8 8 8 8 9 9 9 9 10 10 11 11 12 12 12 11 11 11 11 12 13 14 15 16 16 15 14 12 11 10 10 9 8 8 8 8 8 8 8 9 9 10 12 12 12 11 10 9 10 11 11 12 13 14 15 15 15 14 13 13 12 12 12 11 11 11 11 11 10 10 10 9 9 9 9 9 10 11 11 12
7 8 7 7 7 7 8 8 8 8 9 9 9 10 10 11 11 11 11 12 12 12 12 13 13 13 13 14 15 16 17 17 18 17 16 15 14 13 12 12 12 12 12 11 11 11 11 10 10 11 10 11 11 12 13 13 14 15 16 16 16 15 14 12 10 10 10 11 11 12 11 11 11 10 10 9 9 9 9 9 9 9 10 10 11 11
7 7 7 7 7 7 7 8 8 8 9 10 10 11 11 12 12 13 13 13 13 13 14 14 15 15 15 15 15 16 17 18 19 20 20 20 19 18 18 17 17 16 16 15 15 14 13 12 11 11 11 12 13 14 14 13 14 14 16 17 16 15 12 11 10 10 10 11 12 12 11 10 9 9 9 9 9 9 10 11 11 11 11 11 11 11
8 8 8 7 7 7 8 8 9 9 10 11 11 12 13 13 14 14 14 14 14 15 15 15 16 16 16 16 16 16 17 17 18 19 20 21 21 21 21 21 20 20 19 18 17 16 15 14 14 14 13 13 13 14 14 13 13 14 14 14 14 13 13 13 12 11 11 11 11 11 11 10 10 10 10 10 10 11 11 12 12 12 12 12 12 12
8 8 8 8 8 8 8 9 9 10 11 12 12 13 14 14 14 14 14 14 14 13 14 14 15 15 15 15 15 14 14 14 15 15 16 16 17 18 18 19 19 19 18 18 17 16 15 15 15 15 14 14 14 15 15 14 14 13 13 13 14 15 16 15 13 12 11 10 10 10 11 11 11 11 11 11 11 11 11 12 12 13 12 12 13 13
9 9 9 9 8 8 9 9 10 11 12 13 13 14 14 14 14 14 13 13 13 12 12 12 13 14 15 15 14 14 13 13 12 12 12 12 12 12 13 14 14 15 15 16 16 15 15 14 14 14 14 14 14 14 15 15 14 13 13 14 15 16 16 14 12 10 10 10 10 11 11 12 12 12 12 12 12 12 11 12 12 13 13 13 14 14
11 11 10 10 10 10 11 11 12 13 13 14 14 15 14 14 13 13 12 13 12 12 11 11 12 13 14 15 15 15 14 13 13 12 12 11 10 10 10 11 11 11 12 14 15 14 14 13 14 14 14 14 14 14 15 15 15 14 13 14 14 13 12 12 12 12 12 12 12 12 12 13 13 13 13 13 12 12 12 12 12 12 13 14 14 15
13 12 12 11 11 12 13 13 14 14 14 15 15 14 13 12 11 12 12 13 13 12 11 11 12 13 14 15 15 15 15 14 13 12 11 11 10 11 11 10 10 10 11 13 14 14 13 13 13 14 13 13 14 14 15 15 15 15 14 14 13 13 14 14 15 15 15 14 14 13 13 13 13 14 14 14 14 14 14 14 13 13 13 14 14 16
14 14 13 13 13 14 14 15 15 15 14 14 14 13 12 11 11 11 12 13 13 13 12 12 11 12 12 13 13 14 14 14 12 10 9 10 10 11 11 10 10 10 10 12 13 14 13 13 13 13 12 12 13 14 15 15 16 16 15 14 14 15 16 16 16 16 16 16 15 14 13 13 13 14 15 16 16 15 15 15 15 14 14 14 14 15
15 15 14 14 14 15 15 15 15 14 14 13 13 12 11 10 11 12 13 13 13 13 13 12 12 12 12 12 12 12 12 13 12 10 9 8 9 10 10 10 9 9 9 10 11 12 13 14 13 13 12 13 14 15 16 16 16 16 16 15 15 15 16 16 16 16 15 15 15 14 13 13 13 14 15 16 16 16 16 16 16 16 15 15 15 15
16 15 15 15 15 16 16 15 14 14 14 13 13 12 11 10 11 12 13 13 13 13 13 13 13 14 14 13 13 12 12 12 12 11 9 8 9 10 11 10 10 10 10 10 11 12 13 13 13 13 14 14 14 15 16 16 16 16 16 16 15 16 16 17 16 16 15 15 15 14 13 12 13 14 15 16 17 18 18 17 17 16 16 15 15 15
16 16 16 16 16 16 16 15 15 14 14 14 14 13 12 11 11 11 12 13 13 13 13 13 14 14 15 15 14 14 13 12 12 11 10 9 9 10 11 11 11 11 11 11 12 12 13 14 14 15 15 16 16 16 16 16 16 16 16 15 15 15 16 17 17 16 14 14 13 13 12 12 13 14 15 16 17 18 19 18 18 17 16 16 16 16
16 16 16 16 16 16 16 16 16 15 15 15 14 14 12 11 11 11 12 13 13 13 14 14 14 14 14 14 14 13 12 12 11 11 11 10 9 9 10 10 11 11 12 12 13 13 14 15 16 16 17 18 18 18 18 17 17 16 16 16 16 16 16 17 17 16 15 13 12 11 11 12 12 13 14 16 17 18 19 19 19 18 17 17 16 16
16 16 17 17 17 17 17 17 16 16 16 16 15 14 13 12 12 12 12 13 13 14 14 15 15 15 14 14 13 13 12 12 12 12 12 11 10 10 10 10 10 11 11 12 12 13 13 14 16 17 17 19 20 20 20 20 18 17 17 17 17 17 17 18 18 16 14 13 12 12 12 12 13 13 14 15 17 19 20 20 20 19 18 17 16 17
17 17 17 18 18 18 18 18 17 17 17 16 16 15 14 14 13 13 13 13 14 15 15 15 15 15 15 14 13 13 12 12 12 13 13 12 11 11 10 10 10 10 10 10 10 10 10 10 11 13 16 17 18 19 21 21 20 18 17 18 18 18 18 19 18 16 14 13 13 13 13 13 14 14 14 15 16 18 19 20 20 19 18 17 17 17
Wind_Direction
178 171 165 157 148 151 162 208 160 103 62 22 23 56 87 88 91 97 103 109 115 122 121 37 302 293 288 291 303 316 326 328 326 321 317 309 298 293 299 309 322 339 354 1 8 23 44 60 68 69 68 67 66 65 63 59 54 49 47 45 40 33 27 19 12 6 359 355 356 356 354 348 336 325 319 319 319 312 302 311 309 309 322 327 329 327
181 179 156 143 146 160 177 192 185 169 161 178 186 158 131 123 143 171 170 163 159 161 166 177 210 264 288 299 315 329 334 333 330 326 322 315 308 306 314 328 353 13 29 30 34 47 68 82 88 86 77 67 60 56 53 47 41 34 31 32 28 24 18 11 5 1 354 351 345 340 341 339 332 325 325 326 322 318 318 312 302 299 307 310 321 332
159 156 154 148 152 165 185 203 205 200 194 197 193 177 162 170 190 202 196 189 184 184 190 193 205 236 270 297 323 340 345 347 347 350 357 8 19 27 33 44 57 73 85 85 83 87 100 108 109 101 80 52 34 26 20 13 5 358 352 349 350 349 346 342 339 336 331 333 325 312 306 309 313 318 321 327 325 320 323 314 303 300 307 310 317 324
153 150 156 160 167 179 200 213 213 201 181 168 151 141 142 161 187 199 199 197 197 197 198 194 200 227 260 295 327 347 357 5 11 17 24 41 67 78 82 84 93 106 117 120 123 130 138 147 156 167 294 316 326 328 327 325 323 320 315 310 308 307 309 307 306 306 307 310 307 301 300 296 299 306 311 314 314 310 309 307 303 302 305 307 311 311
153 152 161 169 182 198 214 213 188 138 110 101 100 97 91 85 95 125 155 171 174 168 156 144 150 216 267 305 336 356 9 23 31 34 35 41 58 89 107 109 114 121 136 150 162 175 193 212 232 255 276 289 299 304 306 307 306 304 302 298 294 292 290 288 288 288 287 289 290 291 294 291 289 291 296 294 292 293 294 297 297 297 297 300 303 304
151 157 168 176 191 208 214 186 149 130 122 106 96 87 71 69 84 97 109 116 117 114 108 106 113 214 289 319 341 1 19 33 38 37 34 34 38 59 114 138 145 159 182 204 218 230 243 254 264 274 282 290 296 300 302 302 301 300 299 296 294 291 290 288 285 283 281 279 280 281 284 286 286 285 284 281 279 281 284 290 292 292 294 297 299 299
153 163 175 181 195 204 153 141 139 144 161 163 166 179 199 113 98 100 101 101 103 104 103 110 122 171 306 330 347 2 18 28 31 30 25 20 17 14 356 246 224 231 243 251 258 264 270 275 280 285 289 293 297 299 301 301 301 299 298 297 296 295 295 293 290 285 281 278 275 274 276 279 282 283 282 280 277 277 277 283 285 287 290 294 296 297
154 161 166 165 155 105 105 121 136 150 167 178 193 207 217 206 157 130 124 124 129 133 134 132 138 144 53 355 357 358 4 12 18 18 10 1 346 335 323 310 296 286 282 282 284 286 287 290 292 293 295 297 297 298 299 299 299 298 297 297 297 298 298 297 293 288 283 278 274 271 269 271 273 277 279 280 278 276 276 278 280 282 286 289 292 294
152 153 155 159 156 144 133 129 140 152 163 171 184 199 203 196 184 174 168 164 161 160 159 156 155 160 173 224 282 296 307 314 313 304 297 292 293 297 302 303 302 299 296 294 295 296 298 299 300 300 300 299 298 297 297 297 296 296 295 296 297 297 297 296 293 289 284 279 274 270 266 265 267 270 274 276 276 275 275 277 278 280 283 286 289 292
151 152 155 162 166 165 160 158 154 157 163 166 172 179 179 174 174 175 178 176 173 175 179 181 184 194 218 251 271 284 294 300 297 287 275 271 274 281 288 292 293 293 292 293 295 298 301 304 305 306 305 303 301 299 297 296 295 295 295 296 296 296 295 293 291 288 284 279 274 269 266 263 262 264 267 269 271 272 273 274 276 278 281 283 287 289
152 154 157 160 165 167 165 166 164 161 159 160 171 188 188 173 162 158 157 156 153 162 194 215 227 244 262 272 280 288 296 301 302 298 288 284 284 287 290 291 291 290 290 292 294 297 301 305 307 308 308 305 302 300 298 297 296 296 297 298 298 298 297 293 290 286 282 278 275 270 267 264 261 261 261 263 265 267 269 270 272 276 279 281 284 285
153 156 158 160 163 165 166 169 165 157 155 167 179 188 194 189 174 152 129 122 130 157 224 268 280 285 286 284 285 289 295 299 299 296 290 289 295 300 302 300 298 295 294 293 294 296 298 300 302 303 303 300 297 297 297 297 297 298 300 302 304 305 303 299 295 291 287 284 281 277 273 270 266 263 262 262 263 264 265 267 270 273 275 278 280 280
159 160 161 164 165 167 169 171 169 166 171 178 169 154 151 178 192 182 134 93 65 298 292 297 301 298 293 287 284 285 288 294 298 297 290 284 288 297 300 299 296 294 292 292 293 295 296 296 294 292 290 288 288 290 292 292 293 296 300 305 308 310 309 308 305 301 298 296 293 290 287 282 278 274 269 267 266 265 265 267 269 270 271 274 274 274
163 166 168 170 170 171 174 176 177 174 168 161 150 142 143 151 182 201 191 243 324 309 301 304 311 305 284 276 276 278 281 289 297 301 298 289 283 282 282 285 286 287 286 288 290 294 299 299 295 290 286 284 285 287 287 287 289 294 300 304 307 308 309 308 306 302 298 296 294 293 291 290 286 283 279 275 271 269 268 268 268 268 269 269 269 268
170 175 179 177 172 171 174 176 172 165 160 160 155 146 136 133 156 193 209 251 284 291 292 294 305 300 273 265 268 276 284 294 302 305 304 302 300 293 283 280 280 281 282 285 289 296 304 304 300 295 289 287 287 287 287 288 292 297 302 305 306 305 304 303 300 296 291 289 287 286 286 286 285 283 282 279 276 273 271 269 268 267 266 265 264 262
176 182 184 177 172 169 170 167 159 155 161 175 182 174 159 158 170 191 207 249 278 296 313 317 317 306 273 259 268 287 302 309 311 311 312 312 314 312 299 287 282 281 280 284 290 299 307 308 305 299 293 288 286 287 288 292 298 302 306 308 306 302 297 295 293 290 287 283 282 282 283 283 282 281 280 279 277 275 272 270 268 266 264 261 259 257
175 181 183 177 171 167 169 166 160 156 162 176 192 199 198 199 208 221 233 250 269 293 319 327 331 327 300 257 274 307 319 322 320 317 317 316 321 324 315 298 287 283 282 285 292 302 311 313 310 303 295 288 284 285 290 296 302 307 310 311 309 302 293 289 287 285 283 280 278 277 278 279 278 278 278 277 275 273 271 268 266 264 262 259 256 253
166 173 176 172 167 166 171 173 170 166 163 164 172 188 205 220 235 250 256 259 262 273 289 295 307 309 299 284 289 315 328 329 326 322 319 317 320 325 324 303 289 284 284 287 295 306 313 314 311 304 298 294 290 290 294 299 305 309 310 310 308 302 294 287 283 281 280 278 276 274 273 273 274 275 275 274 273 271 269 267 265 262 258 254 252 251
163 168 169 164 162 165 172 176 178 176 169 165 162 162 167 184 209 232 239 249 252 259 272 281 281 280 282 282 288 307 320 321 322 321 317 314 316 322 328 305 288 283 282 287 297 307 314 313 310 307 304 302 299 297 298 300 302 304 304 303 301 299 293 287 281 277 275 275 274 274 273 271 269 269 271 270 270 269 267 265 263 261 256 251 250 250
168 169 164 153 151 158 167 174 179 181 179 178 173 166 155 156 155 154 163 204 246 266 277 281 281 281 282 282 282 285 293 300 308 312 310 306 310 319 328 310 289 282 281 288 298 308 313 312 309 308 307 305 301 298 296 296 296 297 297 299 298 296 292 287 282 277 274 272 272 271 271 271 270 267 266 266 266 265 265 263 262 259 256 252 251 251
162 163 166 161 152 152 160 169 179 187 190 190 186 178 171 170 170 169 174 198 233 261 273 285 288 287 287 285 281 278 282 290 298 303 301 298 304 314 328 318 296 285 285 292 302 310 311 308 305 304 304 304 301 296 293 292 292 294 299 303 302 298 293 288 285 283 281 279 277 276 275 273 272 270 267 264 262 261 261 261 259 257 256 253 251 249
146 151 162 167 161 154 156 169 183 193 199 202 197 189 188 189 191 197 219 243 264 276 281 284 282 279 278 278 280 284 289 288 289 289 289 288 295 307 329 321 300 292 292 298 304 308 305 302 301 302 302 300 296 292 289 288 291 299 308 311 308 300 293 290 288 287 284 282 281 280 278 277 276 274 271 267 263 261 260 259 257 256 255 253 251 249
142 150 162 170 171 169 170 179 189 200 207 211 210 210 214 217 222 234 251 265 276 282 283 281 279 279 280 285 295 305 305 294 281 274 271 272 287 302 318 312 299 294 295 298 300 300 297 298 302 305 305 299 294 289 286 286 296 309 318 318 312 301 290 284 282 282 282 282 282 282 281 280 278 276 274 270 267 263 261 258 257 255 254 253 252 252
154 161 173 183 188 191 192 195 201 209 217 223 228 232 237 242 249 258 266 275 284 292 297 299 299 299 301 307 313 316 313 296 272 259 253 261 280 294 304 302 297 293 294 296 296 295 296 301 307 310 305 297 290 285 283 290 306 320 328 328 322 308 290 279 275 275 278 281 283 283 282 281 279 276 272 269 267 264 262 259 257 255 254 253 252 252
181 186 195 203 208 210 214 218 224 230 236 242 246 249 252 257 266 273 279 288 299 308 312 310 305 302 306 311 313 313 312 297 271 253 247 264 280 287 295 299 298 296 296 297 297 298 302 308 314 314 303 285 273 276 282 298 315 328 336 339 338 328 308 293 284 280 280 280 280 280 279 277 277 275 271 268 266 264 262 259 257 255 254 252 251 251
208 215 223 229 228 227 229 235 240 246 252 259 265 271 277 281 282 284 288 294 302 308 306 299 293 293 298 301 304 307 309 301 283 265 257 268 280 286 291 300 303 300 300 300 301 304 308 314 320 322 299 253 246 264 284 304 321 331 337 340 341 337 327 317 308 302 297 292 287 283 278 273 272 272 271 270 267 265 263 260 258 255 254 253 252 250
227 231 237 242 243 240 238 236 240 247 255 264 273 279 280 277 276 276 278 283 292 297 297 294 293 294 295 294 296 301 306 301 292 281 272 271 273 280 290 302 308 307 304 303 304 307 312 318 325 332 310 204 226 257 284 306 319 327 329 330 330 327 322 316 311 307 304 301 298 294 289 281 274 270 269 269 268 267 265 262 260 258 256 255 254 252
241 243 245 247 249 249 247 244 245 249 254 259 262 264 266 270 272 273 274 282 287 288 286 288 291 293 292 290 290 293 296 295 289 281 276 270 266 272 288 305 311 311 308 308 308 311 317 325 334 348 6 231 258 279 295 310 319 323 322 320 316 312 308 304 301 299 298 297 297 298 298 293 284 275 270 268 268 267 265 263 262 260 259 257 255 254
299 281 268 260 258 260 260 259 258 257 256 256 257 258 262 268 271 273 277 283 283 277 273 276 280 283 285 287 289 290 289 286 281 273 265 262 262 273 288 303 309 310 313 316 315 317 327 346 7 17 357 307 291 295 306 316 322 323 320 314 307 301 298 297 296 295 295 295 297 299 301 300 295 286 277 271 269 268 266 264 262 261 259 257 256 255
346 332 318 303 287 280 282 285 284 279 270 263 259 259 261 265 270 274 278 280 277 270 265 266 269 273 279 286 292 292 286 278 270 263 258 258 263 275 288 296 301 306 316 326 329 329 335 16 71 99 108 284 293 302 310 316 318 318 314 308 303 298 296 296 296 296 296 297 299 301 301 300 298 293 286 279 273 268 266 265 263 261 258 257 257 257
314 306 302 298 287 281 284 289 291 288 281 274 267 263 262 264 268 272 274 273 270 266 262 262 263 266 269 274 282 290 285 282 279 274 271 266 266 276 286 289 293 300 311 328 336 331 322 330 112 141 209 279 295 303 309 312 313 311 308 304 301 298 297 297 296 296 297 299 302 302 300 299 297 294 290 286 280 274 269 266 264 261 259 258 258 258
253 262 266 267 267 269 273 277 279 279 279 277 275 273 271 271 271 272 272 270 267 263 260 259 259 259 259 257 252 252 270 287 295 293 287 280 275 276 282 281 282 289 297 307 307 290 277 300 291 276 287 296 302 306 309 312 314 313 311 307 303 300 298 296 295 296 299 303 305 304 302 300 297 295 292 288 285 280 274 269 265 261 259 259 259 258
247 253 257 260 264 268 270 271 272 273 275 276 278 279 280 280 278 276 274 271 266 262 257 255 255 255 255 254 253 254 262 276 287 290 286 281 276 273 274 273 274 279 287 291 285 273 266 275 286 293 298 302 305 308 310 314 318 320 317 312 306 301 299 297 298 300 303 305 307 307 305 302 299 296 293 290 287 283 279 273 268 263 261 260 260 260
263 268 272 275 277 278 277 276 274 274 274 276 278 280 282 282 281 279 278 276 272 266 259 255 253 253 252 253 254 255 258 267 275 278 277 275 271 268 269 269 271 277 284 286 282 275 272 274 282 292 299 302 303 304 308 315 322 324 317 309 303 300 298 298 300 302 303 304 304 305 304 304 303 300 296 293 290 286 282 279 273 267 263 261 261 262
280 284 287 289 290 290 288 284 280 276 274 274 275 277 278 278 278 278 279 279 278 274 269 262 257 253 250 250 252 253 253 254 259 267 271 271 269 267 268 266 267 272 277 280 280 280 281 282 287 293 299 302 302 303 307 315 319 313 300 292 290 290 292 294 297 298 299 300 301 302 305 307 308 307 303 299 295 292 289 286 281 274 268 264 263 263
286 288 291 292 292 291 289 286 281 275 271 270 270 272 273 274 274 275 277 279 280 279 277 271 264 256 251 249 249 249 248 247 250 259 267 270 269 268 266 262 261 263 267 274 279 284 288 290 292 295 298 300 300 302 306 309 303 293 286 283 282 283 286 290 293 295 298 300 303 307 310 312 311 307 302 298 295 293 290 288 284 279 274 269 265 264
282 285 287 289 288 288 286 283 277 271 266 263 264 265 266 268 269 271 273 275 277 277 277 275 270 262 254 249 248 248 247 246 247 252 258 264 267 268 266 263 263 264 264 268 277 285 290 293 294 294 294 291 292 297 302 303 299 294 290 289 289 290 292 294 297 299 302 305 308 310 309 308 305 301 297 293 291 289 287 284 282 280 276 272 269 265
280 283 287 288 287 285 283 279 273 267 262 259 259 259 260 261 263 265 267 268 270 270 271 271 270 267 261 255 251 249 248 247 246 248 252 257 262 265 267 267 267 267 266 266 270 277 285 288 291 292 291 288 288 291 296 301 302 301 299 300 301 303 306 309 310 310 308 307 306 306 306 305 303 301 299 297 296 295 294 293 291 288 284 279 274 269
277 280 282 284 283 282 279 275 269 264 260 258 258 258 259 261 262 263 264 264 264 264 265 266 268 268 266 263 259 256 254 252 250 250 251 254 258 262 266 269 270 270 270 269 269 271 273 276 278 280 285 289 292 294 296 299 302 303 305 307 309 311 315 318 317 313 308 306 306 307 309 312 314 313 312 310 308 306 303 302 301 300 296 292 287 280
273 274 275 275 275 275 274 270 266 262 260 260 261 263 265 267 268 268 267 266 264 263 263 264 266 267 268 267 266 264 262 260 258 257 256 256 258 260 263 267 269 271 272 271 270 268 266 267 269 271 275 282 288 293 296 297 298 301 306 308 308 308 310 314 314 311 309 309 310 312 314 316 316 315 311 309 306 303 301 300 300 298 296 293 290 287
271 270 271 271 270 269 269 266 263 261 261 263 266 269 272 274 275 274 274 271 268 265 263 263 265 267 269 270 270 270 269 268 267 265 264 262 261 260 261 263 265 268 270 270 269 266 263 262 265 267 270 275 281 286 288 290 292 296 299 298 298 300 304 307 309 309 311 311 311 310 309 308 305 302 299 296 293 292 292 293 293 293 292 289 287 285
270 270 271 271 268 265 262 261 260 262 265 269 272 275 278 279 279 278 276 274 272 270 268 266 267 268 270 273 275 277 278 279 280 279 277 272 267 263 261 261 262 264 267 268 266 263 259 258 259 262 266 271 277 282 284 286 288 290 290 290 294 299 303 303 306 310 310 309 306 304 303 302 301 299 297 295 292 289 288 288 288 288 288 286 284 283
270 273 275 272 266 260 258 258 261 264 269 273 276 278 280 280 278 277 274 272 271 270 269 267 267 268 270 272 276 279 282 285 288 288 285 280 274 269 266 264 263 263 263 263 261 258 258 255 255 258 262 267 272 276 281 284 287 288 286 288 292 296 298 298 303 308 308 305 304 305 306 307 307 308 307 305 302 299 296 292 288 285 283 282 281 280
273 275 275 270 264 259 259 260 263 268 273 276 277 278 278 276 274 272 270 268 268 267 266 265 265 266 267 269 272 276 281 286 289 288 284 280 275 271 268 266 265 263 261 259 256 253 255 255 255 257 260 264 268 271 275 279 282 284 285 285 285 284 283 289 296 300 300 300 302 304 307 309 311 310 309 306 304 302 300 296 291 287 283 280 278 278
272 273 271 266 262 259 260 263 268 273 277 278 278 277 275 271 267 265 264 264 265 264 262 261 261 261 262 265 269 275 281 288 292 291 285 277 271 267 265 264 263 262 261 260 258 255 252 252 256 260 263 265 265 267 270 273 277 280 282 282 281 280 280 284 289 292 293 295 297 301 305 307 308 306 304 302 300 299 298 297 295 292 289 286 282 280
270 269 266 262 260 259 261 266 272 276 278 278 277 275 273 268 263 260 260 261 262 262 260 257 256 256 259 264 269 275 281 286 289 290 286 276 267 264 265 266 267 267 266 267 268 265 260 257 258 262 266 267 266 265 265 268 272 275 278 280 281 281 281 282 283 285 288 291 293 297 302 304 303 300 298 297 297 297 297 298 297 296 295 293 289 286
268 266 263 260 258 259 263 268 272 274 274 274 274 275 273 268 262 259 257 257 258 258 257 255 253 253 255 260 266 271 276 280 283 284 281 274 264 261 264 268 273 277 276 276 275 271 267 267 266 264 262 263 265 266 266 266 267 269 273 277 279 280 280 280 281 283 285 286 289 293 298 300 297 295 293 295 295 295 296 297 298 298 298 298 296 293
269 265 262 259 257 258 261 264 268 269 270 271 272 273 272 267 262 259 257 256 256 255 253 251 250 251 254 258 263 267 271 274 277 277 274 269 264 261 263 266 271 275 278 280 277 274 272 271 268 263 259 257 259 263 266 266 265 266 268 272 274 275 276 277 280 283 285 286 288 291 294 293 292 291 293 294 295 295 295 296 297 298 298 298 298 296
268 264 260 257 256 256 258 261 264 266 266 268 268 269 268 264 260 257 256 255 254 252 250 249 249 251 254 257 261 264 266 268 269 269 267 263 259 257 259 262 266 269 272 273 275 276 276 276 271 265 260 256 255 258 263 264 265 264 265 266 268 269 271 275 280 284 287 288 290 291 291 289 288 289 291 291 291 292 293 295 296 296 296 296 296 296
266 263 259 256 255 255 257 260 262 263 264 264 264 264 263 260 257 254 253 253 253 252 250 250 250 251 253 256 259 261 262 262 262 263 262 260 257 253 252 255 258 260 261 261 263 265 269 271 271 266 261 256 254 254 257 260 262 264 264 263 263 264 267 272 279 285 289 291 291 291 290 288 287 287 287 286 287 289 292 293 294 295 295 295 295 295
263 261 258 255 254 255 257 259 261 261 262 262 262 261 259 257 255 253 251 251 252 252 252 251 251 251 252 255 257 258 258 258 259 260 260 259 255 252 250 249 250 251 251 253 255 258 262 268 271 270 265 257 252 251 253 255 257 260 260 260 261 263 265 269 276 283 287 289 290 289 289 287 285 284 283 283 285 288 290 291 292 293 294 295 295 294